M I D A S
Marine Information and Data Acquisition System
Tripno 749 of the Zeeleeuw from 2004-07-15 07:01:23 to 2004-07-15 15:27:17
Back to CruiseResearch ActivitiesStationsMapUnderway DataData graphs

EquipmentUnitsComments
TimeDGPSUTC
LatitudeDGPSDM.mWGS84
LongitudeDGPSDM.mWGS84
SpeedMeteo Stationm/sRelative wind speed
DirectionMeteo StationdegRelative wind direction
TemperatureMeteo Stationdeg CelciusAir temperature
PressureMeteo StationPaAtmospheric pressure
HumidityMeteo Station%Relative humidity
Missing or incorrect values are displayed as -999
Metereological data collected by the RV Zeeleeuw from 2004-07-15 07:01:23 to 2004-07-15 15:27:17
Time Latitude Longitude Speed Direction Temperature Pressure Humidity
2004-07-15 07:02 51°13.596 2°56.097 4.1 135 16.9 101590 95
2004-07-15 07:03 51°13.605 2°56.055 1.8 185 16.9 101590 95
2004-07-15 07:04 51°13.589 2°56.085 2 90 16.9 101580 95
2004-07-15 07:05 51°13.551 2°56.15 1.7 111 16.9 101580 95
2004-07-15 07:06 51°13.539 2°56.239 3.2 201 16.9 101580 95
2004-07-15 07:07 51°13.535 2°56.239 3.7 216 16.9 101590 95
2004-07-15 07:08 51°13.543 2°56.252 3.6 228 16.9 101590 95
2004-07-15 07:09 51°13.533 2°56.251 5.3 286 16.9 101580 95
2004-07-15 07:10 51°13.525 2°56.265 3.5 239 16.9 101580 95
2004-07-15 07:11 51°13.54 2°56.234 5.4 352 16.9 101580 95
2004-07-15 07:12 51°13.555 2°56.165 5.6 332 16.9 101570 95
2004-07-15 07:13 51°13.575 2°56.097 4 357 16.9 101580 95
2004-07-15 07:14 51°13.597 2°56.036 6 333 16.9 101570 95
2004-07-15 07:15 51°13.623 2°55.977 6.2 331 16.9 101580 95
2004-07-15 07:16 51°13.652 2°55.917 3.6 341 16.9 101580 95
2004-07-15 07:17 51°13.695 2°55.812 5.2 334 17 101570 95
2004-07-15 07:18 51°13.775 2°55.679 5.9 335 16.9 101570 95
2004-07-15 07:19 51°13.89 2°55.58 3.4 324 17 101570 95
2004-07-15 07:20 51°14.023 2°55.49 6.8 330 16.9 101570 95
2004-07-15 07:21 51°14.172 2°55.379 6.8 339 16.9 101580 95
2004-07-15 07:22 51°14.302 2°55.179 10.1 336 17 101570 95
2004-07-15 07:23 51°14.428 2°54.939 12.3 335 16.9 101550 95
2004-07-15 07:24 51°14.561 2°54.662 12.6 343 16.9 101550 95
2004-07-15 07:25 51°14.661 2°54.357 13.2 343 16.9 101540 95
2004-07-15 07:26 51°14.776 2°54.036 13.8 341 16.9 101540 95
2004-07-15 07:27 51°14.877 2°53.729 13.2 343 16.9 101550 95
2004-07-15 07:28 51°14.983 2°53.412 13.1 339 16.9 101560 95
2004-07-15 07:29 51°15.088 2°53.099 12.6 344 16.9 101550 95
2004-07-15 07:30 51°15.186 2°52.779 13.6 349 16.9 101540 95
2004-07-15 07:31 51°15.25 2°52.438 14.1 342 16.9 101540 95
2004-07-15 07:32 51°15.294 2°52.08 13.9 349 16.9 101540 95
2004-07-15 07:33 51°15.304 2°51.705 14.6 359 16.9 101540 95
2004-07-15 07:34 51°15.265 2°51.338 15.1 3 16.9 101550 95
2004-07-15 07:35 51°15.219 2°50.97 14.3 357 16.8 101540 95
2004-07-15 07:36 51°15.184 2°50.6 13.5 4 16.9 101550 95
2004-07-15 07:37 51°15.15 2°50.231 13.2 3 16.9 101550 95
2004-07-15 07:38 51°15.116 2°49.863 15 4 16.9 101550 95
2004-07-15 07:39 51°15.084 2°49.495 14.4 2 16.8 101550 95
2004-07-15 07:40 51°15.046 2°49.128 13.8 2 16.8 101550 95
2004-07-15 07:41 51°15.008 2°48.761 13.9 5 16.8 101550 95
2004-07-15 07:42 51°14.971 2°48.395 15.1 3 16.8 101560 95
2004-07-15 07:43 51°14.932 2°48.032 15.1 5 16.8 101560 95
2004-07-15 07:44 51°14.894 2°47.67 14.3 5 16.8 101550 95
2004-07-15 07:45 51°14.858 2°47.312 14.5 2 16.8 101560 95
2004-07-15 07:46 51°14.822 2°46.955 13.7 2 16.8 101540 95
2004-07-15 07:47 51°14.785 2°46.6 14.8 359 16.8 101550 95
2004-07-15 07:48 51°14.752 2°46.245 13.3   16.8 101550 95
2004-07-15 07:49 51°14.716 2°45.89 13.7   16.9 101560 95
2004-07-15 07:50 51°14.679 2°45.529 15   16.8 101560 95
2004-07-15 07:51 51°14.64 2°45.166 14.4 1 16.8 101560 95
2004-07-15 07:52 51°14.601 2°44.803 13.6 358 16.8 101550 95
2004-07-15 07:53 51°14.562 2°44.439 15 359 16.8 101560 95
2004-07-15 07:54 51°14.523 2°44.075 14.7 360 16.9 101560 95
2004-07-15 07:55 51°14.506 2°43.711 15.9 354 16.8 101540 95
2004-07-15 07:56 51°14.493 2°43.344 14.5   16.8 101550 95
2004-07-15 07:57 51°14.48 2°42.977 14 355 16.8 101520 95
2004-07-15 07:58 51°14.475 2°42.611 14.7 355 16.8 101540 95
2004-07-15 07:59 51°14.47 2°42.249 14.6 357 16.8 101540 95
2004-07-15 08:00 51°14.465 2°41.891 15.3 354 16.8 101540 95
2004-07-15 08:01 51°14.459 2°41.538 14.3 355 16.8 101550 95
2004-07-15 08:02 51°14.429 2°41.179 15.5 357 16.8 101560 95
2004-07-15 08:03 51°14.394 2°40.824 15.7 356 16.8 101540 95
2004-07-15 08:04 51°14.361 2°40.47 15.3 355 16.8 101540 95
2004-07-15 08:05 51°14.33 2°40.118 15 355 16.8 101540 95
2004-07-15 08:06 51°14.298 2°39.767 14.7 356 16.8 101530 95
2004-07-15 08:07 51°14.267 2°39.414 15.7 2 16.8 101540 95
2004-07-15 08:08 51°14.216 2°39.067 14.9 360 16.7 101560 95
2004-07-15 08:09 51°14.163 2°38.716 15.3 359 16.7 101550 95
2004-07-15 08:10 51°14.099 2°38.367 15.1 5 16.7 101560 95
2004-07-15 08:11 51°14.025 2°38.021 16.4 5 16.7 101550 95
2004-07-15 08:12 51°13.954 2°37.685 16.7 5 16.7 101550 95
2004-07-15 08:13 51°13.88 2°37.325 15.3 359 16.7 101560 95
2004-07-15 08:14 51°13.791 2°36.987 15.8 6 16.7 101560 95
2004-07-15 08:15 51°13.695 2°36.655 17 9 16.7 101560 95
2004-07-15 08:16 51°13.601 2°36.323 16.8 7 16.7 101570 95
2004-07-15 08:17 51°13.497 2°35.999 15.7 6 16.7 101540 95
2004-07-15 08:18 51°13.393 2°35.676 17 7 16.7 101580 95
2004-07-15 08:19 51°13.29 2°35.353 16.4 8 16.7 101580 95
2004-07-15 08:20 51°13.186 2°35.03 14.6 7 16.7 101590 95
2004-07-15 08:21 51°13.086 2°34.717 16.7 6 16.7 101580 95
2004-07-15 08:22 51°12.978 2°34.385 17.1 10 16.7 101570 95
2004-07-15 08:23 51°12.876 2°34.066 15.7 9 16.7 101570 95
2004-07-15 08:24 51°12.772 2°33.748 15.4 10 16.7 101560 95
2004-07-15 08:25 51°12.67 2°33.431 16 13 16.6 101570 95
2004-07-15 08:26 51°12.567 2°33.116 15.1 8 16.6 101560 95
2004-07-15 08:27 51°12.464 2°32.801 16.6 9 16.6 101580 95
2004-07-15 08:28 51°12.361 2°32.487 15.9 7 16.6 101590 95
2004-07-15 08:29 51°12.26 2°32.167 15.5 11 16.6 101590 95
2004-07-15 08:30 51°12.162 2°31.844 16.3 9 16.6 101570 95
2004-07-15 08:31 51°12.065 2°31.521 15.6 8 16.6 101570 95
2004-07-15 08:32 51°11.968 2°31.197 15.7 6 16.6 101560 95
2004-07-15 08:33 51°11.876 2°30.871 16.4 4 16.6 101560 95
2004-07-15 08:34 51°11.79 2°30.541 14.8 7 16.5 101570 95
2004-07-15 08:35 51°11.704 2°30.21 17.3 7 16.5 101570 95
2004-07-15 08:36 51°11.619 2°29.88 16.5 7 16.5 101570 95
2004-07-15 08:37 51°11.534 2°29.551 15.8 7 16.5 101570 95
2004-07-15 08:38 51°11.451 2°29.223 13.9 6 16.5 101570 95
2004-07-15 08:39 51°11.377 2°28.88 17 6 16.5 101550 95
2004-07-15 08:40 51°11.314 2°28.549 16.3 4 16.5 101550 95
2004-07-15 08:41 51°11.247 2°28.217 15.2 2 16.5 101570 95
2004-07-15 08:42 51°11.191 2°27.884 15.5 3 16.5 101560 95
2004-07-15 08:43 51°11.14 2°27.549 15.7 4 16.5 101560 95
2004-07-15 08:44 51°11.088 2°27.216 15.4 5 16.5 101560 95
2004-07-15 08:45 51°11.038 2°26.888 15.3 3 16.5 101560 95
2004-07-15 08:46 51°10.988 2°26.561 15.2 360 16.5 101560 95
2004-07-15 08:47 51°10.949 2°26.235 15.3 1 16.5 101550 95
2004-07-15 08:48 51°10.914 2°25.911 15.9 1 16.5 101560 95
2004-07-15 08:49 51°10.878 2°25.601 15.9 1 16.5 101560 95
2004-07-15 08:50 51°10.833 2°25.236 15.7 358 16.5 101560 95
2004-07-15 08:51 51°10.793 2°24.903 14.7 357 16.5 101550 95
2004-07-15 08:52 51°10.745 2°24.577 17.4 360 16.5 101560 95
2004-07-15 08:53 51°10.676 2°24.256 16.5 6 16.5 101550 95
2004-07-15 08:54 51°10.581 2°23.947 15.2 16 16.5 101550 95
2004-07-15 08:55 51°10.456 2°23.664 14.9 10 16.5 101560 95
2004-07-15 08:56 51°10.329 2°23.385 15.9 13 16.5 101550 95
2004-07-15 08:57 51°10.204 2°23.105 15.5 12 16.5 101560 95
2004-07-15 08:58 51°10.079 2°22.826 15.5 7 16.5 101550 95
2004-07-15 08:59 51°9.957 2°22.552 14.4 9 16.5 101550 95
2004-07-15 09:00 51°9.84 2°22.254 17.1 9 16.5 101560 95
2004-07-15 09:01 51°9.724 2°21.955 16.3 7 16.5 101560 95
2004-07-15 09:02 51°9.623 2°21.686 15.6 10 16.5 101550 95
2004-07-15 09:03 51°9.51 2°21.356 16.7 4 16.5 101560 95
2004-07-15 09:04 51°9.424 2°21.055 15.8 5 16.5 101560 95
2004-07-15 09:05 51°9.341 2°20.764 14.7 3 16.5 101560 95
2004-07-15 09:06 51°9.278 2°20.455 16.8 356 16.5 101540 95
2004-07-15 09:07 51°9.24 2°20.13 15.9 354 16.5 101530 95
2004-07-15 09:08 51°9.204 2°19.817 16.4 350 16.5 101540 95
2004-07-15 09:09 51°9.195 2°19.488 15.4 349 16.5 101540 95
2004-07-15 09:10 51°9.186 2°19.171 16.6 350 16.5 101540 95
2004-07-15 09:11 51°9.177 2°18.845 16 351 16.5 101520 95
2004-07-15 09:12 51°9.171 2°18.521 14.5 352 16.5 101520 95
2004-07-15 09:13 51°9.171 2°18.195 17.7 349 16.5 101520 95
2004-07-15 09:14 51°9.169 2°17.867 16.1 351 16.5 101520 95
2004-07-15 09:15 51°9.167 2°17.544 16.8 349 16.5 101530 95
2004-07-15 09:16 51°9.165 2°17.222 15 350 16.5 101520 95
2004-07-15 09:17 51°9.163 2°16.903 15.8 351 16.4 101520 95
2004-07-15 09:18 51°9.168 2°16.575 13.7 348 16.5 101530 95
2004-07-15 09:19 51°9.174 2°16.258 15.3 346 16.4 101520 95
2004-07-15 09:20 51°9.177 2°15.938 17.6 345 16.4 101510 95
2004-07-15 09:21 51°9.176 2°15.592 15.5 349 16.4 101510 95
2004-07-15 09:22 51°9.176 2°15.274 16.6 349 16.4 101510 95
2004-07-15 09:23 51°9.177 2°14.957 16.8 352 16.4 101520 95
2004-07-15 09:24 51°9.132 2°14.657 16 7 16.4 101540 95
2004-07-15 09:25 51°9.019 2°14.387 17.1 10 16.4 101560 95
2004-07-15 09:26 51°8.896 2°14.142 16.2 15 16.4 101550 95
2004-07-15 09:27 51°8.755 2°13.902 17 14 16.4 101550 95
2004-07-15 09:28 51°8.621 2°13.67 17.8 14 16.4 101560 95
2004-07-15 09:29 51°8.483 2°13.428 16.9 8 16.4 101560 95
2004-07-15 09:30 51°8.347 2°13.188 15.2 15 16.4 101550 95
2004-07-15 09:31 51°8.212 2°12.948 16.1 11 16.4 101560 95
2004-07-15 09:32 51°8.077 2°12.708 16.1 14 16.4 101540 95
2004-07-15 09:33 51°7.941 2°12.47 17.4 16 16.4 101550 95
2004-07-15 09:34 51°7.807 2°12.231 17.7 12 16.4 101550 95
2004-07-15 09:35 51°7.674 2°11.997 17.9 14 16.4 101570 95
2004-07-15 09:36 51°7.536 2°11.755 18.4 14 16.4 101550 95
2004-07-15 09:37 51°7.401 2°11.518 17.8 13 16.4 101550 95
2004-07-15 09:38 51°7.267 2°11.286 17.7 12 16.4 101550 95
2004-07-15 09:39 51°7.129 2°11.045 16.7 14 16.4 101550 95
2004-07-15 09:40 51°6.992 2°10.81 18.1 19 16.4 101560 95
2004-07-15 09:41 51°6.845 2°10.597 16.2 15 16.4 101550 95
2004-07-15 09:42 51°6.694 2°10.374 16.1 18 16.4 101550 95
2004-07-15 09:43 51°6.553 2°10.145 17.6 13 16.4 101560 95
2004-07-15 09:44 51°6.428 2°9.902 16.4 13 16.4 101550 95
2004-07-15 09:45 51°6.297 2°9.645 17.2 10 16.5 101560 95
2004-07-15 09:46 51°6.197 2°9.453 13.8 13 16.4 101560 95
2004-07-15 09:47 51°6.152 2°9.371 11.2 14 16.4 101580 95
2004-07-15 09:48 51°6.138 2°9.369 8.2 25 16.5 101580 95
2004-07-15 09:49 51°6.134 2°9.396 9.4 27 16.5 101580 95
2004-07-15 09:50 51°6.134 2°9.437 9.8 50 16.4 101560 95
2004-07-15 09:51 51°6.129 2°9.482 8.9 60 16.4 101560 95
2004-07-15 09:52 51°6.094 2°9.502 10.1 23 16.4 101560 95
2004-07-15 09:53 51°6.063 2°9.468 11.6 7 16.4 101560 95
2004-07-15 09:54 51°6.049 2°9.398 11.2 349 16.4 101550 95
2004-07-15 09:55 51°6.051 2°9.326 11.2 345 16.4 101550 95
2004-07-15 09:56 51°6.062 2°9.257 11 338 16.5 101560 95
2004-07-15 09:57 51°6.085 2°9.2 9.9 324 16.5 101560 95
2004-07-15 09:58 51°6.114 2°9.147 12.1 320 16.5 101550 95
2004-07-15 09:59 51°6.139 2°9.095 10.7 334 16.5 101560 95
2004-07-15 10:00 51°6.155 2°9.043 10.9 342 16.5 101550 95
2004-07-15 10:01 51°6.163 2°8.989 11.4 351 16.5 101560 95
2004-07-15 10:02 51°6.157 2°8.93 11.4 358 16.5 101550 95
2004-07-15 10:03 51°6.149 2°8.86 11.3 359 16.5 101560 95
2004-07-15 10:04 51°6.139 2°8.792 11.5   16.5 101550 95
2004-07-15 10:05 51°6.127 2°8.725 11.3 358 16.5 101560 95
2004-07-15 10:06 51°6.113 2°8.657 10.5 2 16.5 101570 95
2004-07-15 10:07 51°6.094 2°8.591 12.4 6 16.6 101560 95
2004-07-15 10:08 51°6.073 2°8.528 11.1 8 16.5 101560 95
2004-07-15 10:09 51°6.053 2°8.469 10.8 9 16.5 101550 95
2004-07-15 10:10 51°6.033 2°8.411 11.3 4 16.5 101550 95
2004-07-15 10:11 51°6.011 2°8.349 11.8 2 16.5 101560 95
2004-07-15 10:12 51°5.989 2°8.292 12.9 5 16.5 101550 95
2004-07-15 10:13 51°5.968 2°8.235 11.6 7 16.5 101550 95
2004-07-15 10:14 51°5.943 2°8.177 12.6 8 16.5 101550 95
2004-07-15 10:15 51°5.92 2°8.119 12.2 2 16.5 101550 95
2004-07-15 10:16 51°5.901 2°8.06 12.8 6 16.5 101550 95
2004-07-15 10:17 51°5.877 2°8 11.9 6 16.5 101550 95
2004-07-15 10:18 51°5.856 2°7.937 10.5 8 16.5 101540 95
2004-07-15 10:19 51°5.832 2°7.876 11.9 6 16.5 101540 95
2004-07-15 10:20 51°5.811 2°7.811 13.3 2 16.5 101540 95
2004-07-15 10:21 51°5.791 2°7.746 11.1 4 16.5 101540 95
2004-07-15 10:22 51°5.769 2°7.686 12.9 359 16.5 101540 95
2004-07-15 10:23 51°5.754 2°7.623 12.8   16.5 101540 95
2004-07-15 10:24 51°5.741 2°7.559 11.9 356 16.5 101540 95
2004-07-15 10:25 51°5.73 2°7.496 11 356 16.5 101550 95
2004-07-15 10:26 51°5.722 2°7.43 12.7 355 16.5 101540 95
2004-07-15 10:27 51°5.724 2°7.361 12.1 339 16.5 101530 95
2004-07-15 10:28 51°5.744 2°7.291 11.9 331 16.5 101540 95
2004-07-15 10:29 51°5.781 2°7.227 11 227 16.6 101530 95
2004-07-15 10:30 51°5.847 2°7.183 10.5 295 16.6 101530 95
2004-07-15 10:31 51°5.929 2°7.181 11.5 265 16.6 101540 95
2004-07-15 10:32 51°5.992 2°7.204 10.4 262 16.6 101550 95
2004-07-15 10:33 51°6.04 2°7.233 10.9 267 16.6 101540 95
2004-07-15 10:34 51°6.092 2°7.269 6.4 256 16.5 101550 95
2004-07-15 10:35 51°6.15 2°7.362 8 173 16.5 101560 95
2004-07-15 10:36 51°6.176 2°7.506 8.7 146 16.4 101560 95
2004-07-15 10:37 51°6.183 2°7.629 8.5 127 16.5 101560 95
2004-07-15 10:38 51°6.185 2°7.734 9.6 118 16.5 101560 95
2004-07-15 10:39 51°6.185 2°7.831 11.8 124 16.4 101560 95
2004-07-15 10:40 51°6.185 2°7.918 9.5 124 16.4 101550 95
2004-07-15 10:41 51°6.184 2°8 9 128 16.4 101550 95
2004-07-15 10:42 51°6.184 2°8.083 8.8 117 16.4 101560 95
2004-07-15 10:43 51°6.185 2°8.167 9.7 122 16.4 101560 95
2004-07-15 10:44 51°6.186 2°8.251 9.9 120 16.4 101560 95
2004-07-15 10:45 51°6.187 2°8.338 10.3 126 16.3 101560 95
2004-07-15 10:46 51°6.189 2°8.421 9.1 130 16.4 101550 95
2004-07-15 10:47 51°6.191 2°8.513 9.1 137 16.3 101560 95
2004-07-15 10:48 51°6.195 2°8.597 8.2 131 16.4 101560 95
2004-07-15 10:49 51°6.204 2°8.687 8.3 154 16.4 101560 95
2004-07-15 10:50 51°6.22 2°8.777 9.4 156 16.4 101560 95
2004-07-15 10:51 51°6.236 2°8.874 8 148 16.3 101560 95
2004-07-15 10:52 51°6.245 2°8.973 9.8 134 16.3 101560 95
2004-07-15 10:53 51°6.253 2°9.068 9.6 150 16.3 101560 95
2004-07-15 10:54 51°6.268 2°9.159 8 170 16.3 101560 95
2004-07-15 10:55 51°6.292 2°9.251 6.1 181 16.3 101560 95
2004-07-15 10:56 51°6.316 2°9.345 5.2 187 16.4 101560 95
2004-07-15 10:57 51°6.344 2°9.441 6.1 197 16.5 101560 95
2004-07-15 10:58 51°6.373 2°9.531 8 200 16.6 101560 95
2004-07-15 10:59 51°6.401 2°9.621 6.6 198 16.5 101570 95
2004-07-15 11:00 51°6.431 2°9.712 6.7 195 16.4 101560 95
2004-07-15 11:01 51°6.462 2°9.797 9.3 211 16.4 101560 95
2004-07-15 11:02 51°6.496 2°9.878 7.6 217 16.4 101560 95
2004-07-15 11:03 51°6.531 2°9.954 8 217 16.4 101570 95
2004-07-15 11:04 51°6.569 2°10.028 9.7 224 16.5 101560 95
2004-07-15 11:05 51°6.607 2°10.097 9.6 234 16.5 101550 95
2004-07-15 11:06 51°6.646 2°10.163 9.6 227 16.5 101560 95
2004-07-15 11:07 51°6.681 2°10.243 8.2 205 16.5 101560 95
2004-07-15 11:08 51°6.713 2°10.337 6.9 204 16.5 101560 95
2004-07-15 11:09 51°6.744 2°10.446 6.7 179 16.5 101560 95
2004-07-15 11:10 51°6.761 2°10.549 9.8 151 16.6 101560 95
2004-07-15 11:11 51°6.769 2°10.643 9.1 133 16.5 101570 95
2004-07-15 11:12 51°6.772 2°10.72 8.4 125 16.5 101570 95
2004-07-15 11:13 51°6.768 2°10.823 9.9 147 16.5 101560 95
2004-07-15 11:14 51°6.778 2°10.935 8.8 163 16.5 101570 95
2004-07-15 11:15 51°6.798 2°11.036 6.8 184 16.5 101570 95
2004-07-15 11:16 51°6.824 2°11.123 7.4 204 16.6 101570 95
2004-07-15 11:17 51°6.857 2°11.194 10.2 235 16.6 101560 95
2004-07-15 11:18 51°6.891 2°11.249 7.9 252 16.6 101560 95
2004-07-15 11:19 51°6.925 2°11.291 9.6 259 16.6 101560 95
2004-07-15 11:20 51°6.965 2°11.316 10 287 16.6 101550 95
2004-07-15 11:21 51°7.007 2°11.334 10.3 291 16.6 101550 95
2004-07-15 11:22 51°7.049 2°11.346 10.6 293 16.6 101550 95
2004-07-15 11:23 51°7.089 2°11.358 10.6 288 16.7 101550 95
2004-07-15 11:24 51°7.128 2°11.37 11.5 295 16.7 101550 95
2004-07-15 11:25 51°7.165 2°11.376 10.5 307 16.7 101560 95
2004-07-15 11:26 51°7.2 2°11.381 10.7 306 16.7 101550 95
2004-07-15 11:27 51°7.235 2°11.384 9.6 312 16.7 101550 94
2004-07-15 11:28 51°7.271 2°11.386 9 315 16.7 101550 94
2004-07-15 11:29 51°7.306 2°11.38 9.5 324 16.8 101540 94
2004-07-15 11:30 51°7.358 2°11.353 10.4 308 16.8 101540 94
2004-07-15 11:31 51°7.477 2°11.362 10.1 281 16.7 101550 94
2004-07-15 11:32 51°7.61 2°11.388 10.8 288 16.8 101560 94
2004-07-15 11:33 51°7.75 2°11.401 9.6 278 16.8 101550 94
2004-07-15 11:34 51°7.882 2°11.452 9.2 260 16.8 101560 94
2004-07-15 11:35 51°7.945 2°11.515 7.8 240 16.7 101560 94
2004-07-15 11:36 51°7.983 2°11.583 7.9 239 16.6 101560 94
2004-07-15 11:37 51°8.027 2°11.645 6.3 253 16.6 101560 94
2004-07-15 11:38 51°8.078 2°11.706 7.3 253 16.6 101560 94
2004-07-15 11:39 51°8.13 2°11.775 6.7 242 16.6 101560 94
2004-07-15 11:40 51°8.18 2°11.864 8.6 216 16.5 101570 94
2004-07-15 11:41 51°8.222 2°11.964 5.6 192 16.5 101570 94
2004-07-15 11:42 51°8.253 2°12.08 5.5 187 16.6 101570 95
2004-07-15 11:43 51°8.28 2°12.196 6 178 16.6 101570 94
2004-07-15 11:44 51°8.304 2°12.311 6.6 175 16.6 101570 94
2004-07-15 11:45 51°8.329 2°12.413 4.3 195 16.5 101570 94
2004-07-15 11:46 51°8.357 2°12.511 8.7 200 16.6 101570 94
2004-07-15 11:47 51°8.384 2°12.604 6.7 203 16.6 101570 94
2004-07-15 11:48 51°8.412 2°12.699 6.3 199 16.5 101570 94
2004-07-15 11:49 51°8.439 2°12.789 7.1 200 16.5 101570 94
2004-07-15 11:50 51°8.466 2°12.882 6.6 197 16.5 101570 94
2004-07-15 11:51 51°8.492 2°12.973 5.4 182 16.5 101570 94
2004-07-15 11:52 51°8.518 2°13.061 5.1 190 16.6 101570 94
2004-07-15 11:53 51°8.546 2°13.153 7.3 190 16.7 101570 94
2004-07-15 11:54 51°8.572 2°13.247 4.4 195 16.8 101560 94
2004-07-15 11:55 51°8.598 2°13.335 5 185 16.9 101570 94
2004-07-15 11:56 51°8.627 2°13.426 7.1 203 16.8 101560 93
2004-07-15 11:57 51°8.656 2°13.514 9.7 209 16.7 101560 93
2004-07-15 11:58 51°8.688 2°13.599 9.1 221 16.6 101560 94
2004-07-15 11:59 51°8.72 2°13.682 9.4 213 16.5 101560 94
2004-07-15 12:00 51°8.753 2°13.765 9.5 218 16.5 101550 94
2004-07-15 12:01 51°8.787 2°13.848 10.3 223 16.5 101560 94
2004-07-15 12:02 51°8.821 2°13.931 8.8 224 16.5 101550 94
2004-07-15 12:03 51°8.856 2°14.011 8.4 224 16.5 101540 94
2004-07-15 12:04 51°8.889 2°14.089 11 225 16.4 101540 94
2004-07-15 12:05 51°8.925 2°14.167 9.3 229 16.4 101550 94
2004-07-15 12:06 51°8.959 2°14.244 9.6 228 16.5 101540 94
2004-07-15 12:07 51°8.992 2°14.323 8.5 227 16.5 101550 94
2004-07-15 12:08 51°9.025 2°14.4 8.3 219 16.5 101540 94
2004-07-15 12:09 51°9.055 2°14.492 4.1 186 16.5 101550 94
2004-07-15 12:10 51°9.08 2°14.599 9.2 174 16.5 101550 95
2004-07-15 12:11 51°9.101 2°14.713 9.2 171 16.5 101550 94
2004-07-15 12:12 51°9.123 2°14.825 9.3 170 16.5 101550 94
2004-07-15 12:13 51°9.143 2°14.941 8.7 159 16.5 101560 94
2004-07-15 12:14 51°9.163 2°15.055 9 170 16.5 101560 95
2004-07-15 12:15 51°9.186 2°15.17 8.5 176 16.5 101560 95
2004-07-15 12:16 51°9.205 2°15.278 8.8 172 16.5 101550 95
2004-07-15 12:17 51°9.222 2°15.384 9 158 16.5 101550 95
2004-07-15 12:18 51°9.236 2°15.486 8 147 16.5 101550 95
2004-07-15 12:19 51°9.245 2°15.586 8.8 134 16.5 101560 95
2004-07-15 12:20 51°9.251 2°15.676 8.2 130 16.6 101550 95
2004-07-15 12:21 51°9.255 2°15.759 10.4 125 16.6 101550 95
2004-07-15 12:22 51°9.259 2°15.837 9.9 128 16.6 101540 95
2004-07-15 12:23 51°9.263 2°15.91 9.5 124 16.6 101550 95
2004-07-15 12:24 51°9.267 2°15.977 9.3 115 16.6 101550 95
2004-07-15 12:25 51°9.272 2°16.041 10.2 117 16.6 101540 95
2004-07-15 12:26 51°9.278 2°16.107 9.5 114 16.6 101550 95
2004-07-15 12:27 51°9.282 2°16.168 9.7 109 16.6 101540 95
2004-07-15 12:28 51°9.286 2°16.227 9.1 102 16.6 101550 94
2004-07-15 12:29 51°9.29 2°16.283 10 100 16.7 101540 94
2004-07-15 12:30 51°9.294 2°16.337 9 104 16.7 101540 94
2004-07-15 12:31 51°9.297 2°16.39 10.3 99 16.6 101540 94
2004-07-15 12:32 51°9.301 2°16.442 10.5 100 16.6 101540 94
2004-07-15 12:33 51°9.303 2°16.495 7.9 96 16.6 101540 94
2004-07-15 12:34 51°9.306 2°16.546 10.1 94 16.6 101530 94
2004-07-15 12:35 51°9.309 2°16.594 9.3 89 16.6 101530 94
2004-07-15 12:36 51°9.304 2°16.642 9.2 85 16.6 101530 94
2004-07-15 12:37 51°9.251 2°16.729 10.9 94 16.6 101530 94
2004-07-15 12:38 51°9.176 2°16.87 9.7 92 16.6 101520 94
2004-07-15 12:39 51°9.09 2°17.054 9.2 102 16.6 101530 94
2004-07-15 12:40 51°8.997 2°17.256 9.5 89 16.6 101530 94
2004-07-15 12:41 51°8.908 2°17.465 7.8 95 16.6 101530 94
2004-07-15 12:42 51°8.821 2°17.679 7.6 101 16.6 101530 94
2004-07-15 12:43 51°8.739 2°17.899 7.7 96 16.7 101530 94
2004-07-15 12:44 51°8.654 2°18.129 6.9 103 16.7 101530 94
2004-07-15 12:45 51°8.565 2°18.36 7.5 91 16.7 101530 94
2004-07-15 12:46 51°8.477 2°18.589 6.8 105 16.7 101540 94
2004-07-15 12:47 51°8.458 2°18.848 2.6 154 16.8 101540 95
2004-07-15 12:48 51°8.494 2°19.002 8 224 16.8 101550 95
2004-07-15 12:49 51°8.517 2°19.045 5.9 250 16.8 101530 94
2004-07-15 12:50 51°8.542 2°19.078 6 258 16.8 101530 94
2004-07-15 12:51 51°8.585 2°19.123 6.5 239 16.8 101540 94
2004-07-15 12:52 51°8.621 2°19.197 5.9 208 16.8 101540 94
2004-07-15 12:53 51°8.642 2°19.286 3.3 201 16.9 101550 94
2004-07-15 12:54 51°8.657 2°19.373 6.3 182 16.9 101550 94
2004-07-15 12:55 51°8.667 2°19.459 6.2 167 16.9 101550 94
2004-07-15 12:56 51°8.675 2°19.542 7 163 16.9 101550 94
2004-07-15 12:57 51°8.682 2°19.624 7.6 165 16.8 101550 94
2004-07-15 12:58 51°8.689 2°19.703 7 160 16.8 101550 94
2004-07-15 12:59 51°8.695 2°19.782 6.9 158 16.8 101540 94
2004-07-15 13:00 51°8.699 2°19.859 6.3 152 16.8 101540 94
2004-07-15 13:01 51°8.703 2°19.934 6.4 154 16.8 101540 94
2004-07-15 13:02 51°8.708 2°20.009 6.3 158 16.8 101540 94
2004-07-15 13:03 51°8.716 2°20.082 5.8 164 16.8 101540 94
2004-07-15 13:04 51°8.728 2°20.153 5 182 16.8 101540 94
2004-07-15 13:05 51°8.744 2°20.226 5 177 16.9 101540 95
2004-07-15 13:06 51°8.757 2°20.297 5.6 178 17 101540 94
2004-07-15 13:07 51°8.77 2°20.372 6.7 174 17 101540 94
2004-07-15 13:08 51°8.782 2°20.448 7.2 167 17 101530 94
2004-07-15 13:09 51°8.791 2°20.526 6.8 160 17 101540 94
2004-07-15 13:10 51°8.8 2°20.601 7.6 164 17 101530 94
2004-07-15 13:11 51°8.811 2°20.676 6.8 174 17 101530 94
2004-07-15 13:12 51°8.825 2°20.749 5.4 180 17 101530 94
2004-07-15 13:13 51°8.842 2°20.82 4.4 193 17 101530 94
2004-07-15 13:14 51°8.86 2°20.888 3.4 187 17.3 101530 94
2004-07-15 13:15 51°8.88 2°20.956 3.1 190 17.4 101530 94
2004-07-15 13:16 51°8.898 2°21.025 4.9 178 17.5 101520 93
2004-07-15 13:17 51°8.916 2°21.088 6.1 175 17.6 101530 93
2004-07-15 13:18 51°8.935 2°21.155 5.5 182 17.7 101530 92
2004-07-15 13:19 51°8.954 2°21.224 4.1 174 17.7 101520 92
2004-07-15 13:20 51°8.974 2°21.291 3.3 186 17.9 101520 91
2004-07-15 13:21 51°8.987 2°21.36 5 167 17.8 101530 89
2004-07-15 13:22 51°8.998 2°21.43 6.9 161 17.7 101530 89
2004-07-15 13:23 51°9.007 2°21.499 7.6 161 17.6 101520 89
2004-07-15 13:24 51°9.015 2°21.569 6.8 153 17.5 101530 90
2004-07-15 13:25 51°9.021 2°21.641 7.1 152 17.4 101530 90
2004-07-15 13:26 51°9.025 2°21.706 7 146 17.4 101530 90
2004-07-15 13:27 51°9.028 2°21.764 7.5 136 17.3 101530 90
2004-07-15 13:28 51°9.031 2°21.822 6.7 157 17.3 101530 90
2004-07-15 13:29 51°9.048 2°21.884 5.6 210 17.3 101540 90
2004-07-15 13:30 51°9.078 2°21.93 6.6 233 17.4 101530 90
2004-07-15 13:31 51°9.107 2°21.96 4.6 252 17.4 101530 90
2004-07-15 13:32 51°9.133 2°21.983 6.9 258 17.4 101530 90
2004-07-15 13:33 51°9.157 2°22.002 9.1 267 17.4 101530 90
2004-07-15 13:34 51°9.178 2°22.019 9.9 273 17.5 101520 90
2004-07-15 13:35 51°9.203 2°22.031 8.5 290 17.5 101510 90
2004-07-15 13:36 51°9.235 2°22.032 9.9 293 17.6 101510 89
2004-07-15 13:37 51°9.272 2°22.023 8.7 305 17.6 101520 89
2004-07-15 13:38 51°9.306 2°22.005 9.2 311 17.6 101510 89
2004-07-15 13:39 51°9.337 2°21.98 8.9 317 17.7 101510 89
2004-07-15 13:40 51°9.365 2°21.953 8.4 321 17.7 101510 88
2004-07-15 13:41 51°9.387 2°21.921 8 334 17.7 101510 88
2004-07-15 13:42 51°9.402 2°21.888 9.1 343 17.8 101520 88
2004-07-15 13:43 51°9.41 2°21.853 8.8 359 17.8 101520 87
2004-07-15 13:44 51°9.408 2°21.82 8.3 14 17.8 101520 87
2004-07-15 13:45 51°9.392 2°21.801 7.9 36 17.7 101520 87
2004-07-15 13:46 51°9.368 2°21.803 9.4 57 17.7 101510 87
2004-07-15 13:47 51°9.33 2°21.854 6.5 121 17.6 101520 88
2004-07-15 13:48 51°9.354 2°22.023 1.7 202 17.6 101530 88
2004-07-15 13:49 51°9.44 2°22.211 2.7 230 17.7 101530 88
2004-07-15 13:50 51°9.568 2°22.476 2 240 17.7 101530 88
2004-07-15 13:51 51°9.713 2°22.777 1.2 250 17.8 101530 88
2004-07-15 13:52 51°9.851 2°23.079 1.4 278 17.9 101530 88
2004-07-15 13:53 51°9.992 2°23.382 1.1 300 17.9 101530 87
2004-07-15 13:54 51°10.136 2°23.69 1.4 264 18 101520 87
2004-07-15 13:55 51°10.26 2°24.014 0.5 76 18.1 101530 87
2004-07-15 13:56 51°10.366 2°24.348 0.9 160 18.3 101530 86
2004-07-15 13:57 51°10.476 2°24.677 0.1 159 18.4 101530 86
2004-07-15 13:58 51°10.578 2°25.008 0.6 155 18.6 101530 86
2004-07-15 13:59 51°10.674 2°25.347 1.5 130 18.7 101530 85
2004-07-15 14:00 51°10.764 2°25.687 1.5 45 18.7 101530 84
2004-07-15 14:01 51°10.854 2°26.035 2.3 116 18.7 101530 83
2004-07-15 14:02 51°10.94 2°26.379 1.1 85 18.7 101530 82
2004-07-15 14:03 51°11.031 2°26.722 1.4 117 18.6 101520 82
2004-07-15 14:05 51°11.129 2°27.094 1.8 128 18.5 101520 82
2004-07-15 14:05 51°11.214 2°27.434 0.6 118 18.5 101530 82
2004-07-15 14:06 51°11.303 2°27.777 1.9 138 18.5 101530 82
2004-07-15 14:07 51°11.393 2°28.122 1.1 91 18.5 101530 82
2004-07-15 14:08 51°11.472 2°28.477 2 62 18.4 101530 82
2004-07-15 14:09 51°11.551 2°28.829 2.1 93 18.3 101530 83
2004-07-15 14:10 51°11.633 2°29.179 1.9 104 18.2 101520 83
2004-07-15 14:12 51°11.718 2°29.533 1.7 117 18.1 101520 83
2004-07-15 14:13 51°11.798 2°29.882 2.2 93 18.1 101520 84
2004-07-15 14:13 51°11.879 2°30.223 2 89 18 101520 84
2004-07-15 14:14 51°11.965 2°30.57 2.7 115 18 101530 85
2004-07-15 14:15 51°12.048 2°30.92 1.9 122 18 101520 85
2004-07-15 14:17 51°12.131 2°31.272 1.4 125 18 101520 85
2004-07-15 14:18 51°12.214 2°31.622 0.9 120 18 101520 85
2004-07-15 14:18 51°12.297 2°31.963 1.8 155 18 101520 85
2004-07-15 14:20 51°12.384 2°32.31 1 92 18 101520 85
2004-07-15 14:20 51°12.468 2°32.644 1.1 134 18.1 101520 85
2004-07-15 14:22 51°12.561 2°32.991 0.4 192 18.2 101520 85
2004-07-15 14:23 51°12.655 2°33.33 0.6 49 18.4 101520 86
2004-07-15 14:23 51°12.749 2°33.663 0.3 132 18.5 101520 85
2004-07-15 14:24 51°12.845 2°34.004 0.4 287 18.6 101530 85
2004-07-15 14:26 51°12.946 2°34.356 1.1 149 18.8 101520 85
2004-07-15 14:27 51°13.045 2°34.7 1.1 107 18.9 101520 84
2004-07-15 14:28 51°13.144 2°35.041 1.1 37 18.9 101520 83
2004-07-15 14:29 51°13.237 2°35.377 1.1 88 19 101520 82
2004-07-15 14:29 51°13.339 2°35.705 0.2 36 18.9 101520 82
2004-07-15 14:31 51°13.445 2°36.041 0.7 26 18.9 101520 82
2004-07-15 14:31 51°13.546 2°36.367 0.3 352 18.9 101530 82
2004-07-15 14:32 51°13.646 2°36.687 0.1 159 19 101530 82
2004-07-15 14:34 51°13.751 2°37.025 1.1 327 19.2 101530 82
2004-07-15 14:34 51°13.852 2°37.347 0.9 346 19.3 101530 81
2004-07-15 14:35 51°13.953 2°37.676 1.2 324 19.2 101530 80
2004-07-15 14:37 51°14.052 2°38.01 1.4 262 19.2 101530 80
2004-07-15 14:38 51°14.15 2°38.334 0.8 258 19.1 101530 80
2004-07-15 14:38 51°14.247 2°38.656 1.1 252 19 101530 80
2004-07-15 14:40 51°14.295 2°39.011 1.1 121 19 101530 80
2004-07-15 14:40 51°14.306 2°39.355 2 89 19 101530 79
2004-07-15 14:42 51°14.314 2°39.726 2 84 18.8 101530 80
2004-07-15 14:42 51°14.328 2°40.083 1.8 89 18.7 101530 81
2004-07-15 14:44 51°14.336 2°40.449 1.3 111 18.5 101540 81
2004-07-15 14:45 51°14.349 2°40.809 1.3 132 18.4 101530 82
2004-07-15 14:46 51°14.36 2°41.171 1.5 94 18.3 101540 83
2004-07-15 14:46 51°14.373 2°41.527 1.9 79 18.2 101530 83
2004-07-15 14:47 51°14.361 2°41.887 2.9 75 18.2 101530 84
2004-07-15 14:49 51°14.346 2°42.257 2.8 63 18.1 101530 85
2004-07-15 14:50 51°14.349 2°42.621 2.2 55 18 101530 85
2004-07-15 14:50 51°14.375 2°42.975 1.9 49 18 101530 86
2004-07-15 14:51 51°14.398 2°43.33 2.3 64 18 101530 86
2004-07-15 14:52 51°14.417 2°43.69 2.2 60 17.9 101530 87
2004-07-15 14:53 51°14.436 2°44.05 1.7 62 17.9 101530 87
2004-07-15 14:55 51°14.458 2°44.411 1.8 72 17.9 101530 87
2004-07-15 14:55 51°14.479 2°44.756 1.7 70 17.9 101530 87
2004-07-15 14:57 51°14.5 2°45.113 1.7 82 18 101530 87
2004-07-15 14:57 51°14.52 2°45.453 1.2 84 18 101530 87
2004-07-15 14:58 51°14.56 2°45.79 1.4 40 18 101530 87
2004-07-15 15:00 51°14.592 2°46.146 0.9 83 18.1 101530 87
2004-07-15 15:00 51°14.631 2°46.495 1.2 93 18.2 101530 87
2004-07-15 15:02 51°14.619 2°46.856 2.4 101 18.2 101530 87
2004-07-15 15:03 51°14.605 2°47.211 2.2 69 18.2 101530 86
2004-07-15 15:04 51°14.593 2°47.562 3 103 18.2 101530 86
2004-07-15 15:04 51°14.581 2°47.905 2.4 87 18.2 101530 86
2004-07-15 15:05 51°14.572 2°48.26 2.7 109 18.2 101530 86
2004-07-15 15:07 51°14.566 2°48.625 3.2 105 18.2 101530 85
2004-07-15 15:07 51°14.564 2°48.975 2.4 93 18.2 101530 85
2004-07-15 15:08 51°14.562 2°49.33 3.2 119 18.2 101530 85
2004-07-15 15:09 51°14.555 2°49.681 3.3 120 18.2 101540 85
2004-07-15 15:11 51°14.552 2°50.04 2.6 119 18.3 101540 85
2004-07-15 15:12 51°14.551 2°50.389 1.9 110 18.3 101540 84
2004-07-15 15:13 51°14.547 2°50.74 2.9 111 18.3 101530 84
2004-07-15 15:14 51°14.541 2°51.091 2.5 100 18.3 101540 84
2004-07-15 15:14 51°14.535 2°51.435 3.1 100 18.3 101540 84
2004-07-15 15:15 51°14.532 2°51.785 3.2 105 18.3 101530 84
2004-07-15 15:16 51°14.528 2°52.134 3.4 105 18.3 101540 84
2004-07-15 15:17 51°14.523 2°52.484 3 100 18.3 101540 84
2004-07-15 15:18 51°14.516 2°52.834 3.2 111 18.3 101540 84
2004-07-15 15:20 51°14.511 2°53.188 3 105 18.3 101540 84
2004-07-15 15:20 51°14.518 2°53.533 3.7 116 18.4 101540 84
2004-07-15 15:22 51°14.514 2°53.892 2.8 111 18.4 101540 84
2004-07-15 15:22 51°14.511 2°54.24 3.4 91 18.4 101530 84
2004-07-15 15:23 51°14.466 2°54.573 4.9 104 18.4 101530 83
2004-07-15 15:25 51°14.401 2°54.896 5.6 96 18.4 101530 83
2004-07-15 15:25 51°14.303 2°55.188 6.2 87 18.4 101520 83
2004-07-15 15:26 51°14.17 2°55.379 6.5 65 18.5 101520 84